GW4461 Weather Reports


Display with metric or nautical units.
time (UTC)temp
F
wind
direction
speed
MPH
gust
MPH
rain 1hr
in
rain 24hr
in
rain mn
in
humidity
%
barometer
mb
20260507091750 34 325 0.0 0.0 0.00 0.00 0.00 80 1009.4
20260507091247 35 338 0.0 0.0 0.00 0.00 0.00 80 1009.6
20260507090747 34 320 0.0 0.0 0.00 0.00 0.00 80 1009.4
20260507090244 35 300 1.0 1.0 0.00 0.00 0.00 79 1009.4
20260507085741 35 305 1.0 1.0 0.00 0.00 0.00 78 1009.3
20260507085238 36 332 0.0 0.0 0.00 0.00 0.00 79 1009.4
20260507084735 36 327 0.0 0.0 0.00 0.00 0.00 78 1009.3
20260507084231 36 314 0.0 0.0 0.00 0.00 0.00 77 1009.2
20260507083729 37 303 0.0 0.0 0.00 0.00 0.00 77 1009.6
20260507083226 37 303 0.0 1.0 0.00 0.00 0.00 76 1009.7
20260507082722 37 303 0.0 0.0 0.00 0.00 0.00 77 1009.7
20260507082217 37 303 0.0 0.0 0.00 0.00 0.00 76 1009.4
20260507081715 38 304 0.0 0.0 0.00 0.00 0.00 75 1009.4
20260507081211 38 303 0.0 0.0 0.00 0.00 0.00 75 1009.4
20260507080707 38 302 1.0 1.0 0.00 0.00 0.00 74 1009.3
20260507080204 38 305 0.0 0.0 0.00 0.00 0.00 75 1009.4
20260507075659 39 304 0.0 1.0 0.00 0.00 0.00 75 1009.6
20260507075155 39 305 0.0 0.0 0.00 0.00 0.00 73 1009.3
20260507074652 40 305 0.0 0.0 0.00 0.00 0.00 73 1009.4
20260507074150 40 305 0.0 0.0 0.00 0.00 0.00 72 1009.3
20260507073646 40 306 0.0 0.0 0.00 0.00 0.00 72 1009.4
20260507073142 41 306 0.0 0.0 0.00 0.00 0.00 72 1009.1
20260507072641 41 311 0.0 1.0 0.00 0.00 0.00 70 1009.2
20260507072138 42 315 0.0 0.0 0.00 0.00 0.00 69 1009.3
20260507071635 43 315 0.0 0.0 0.00 0.00 0.00 70 1009.6
20260507071131 44 304 0.0 0.0 0.00 0.00 0.00 69 1009.3
20260507070628 44 316 0.0 0.0 0.00 0.00 0.00 67 1009.3
20260507070125 45 315 0.0 0.0 0.00 0.00 0.00 65 1009.0
20260507065621 45 293 1.0 1.0 0.00 0.00 0.00 64 1009.1
20260507065119 45 323 0.0 0.0 0.00 0.00 0.00 67 1009.2
20260507064616 44 314 0.0 0.0 0.00 0.00 0.00 68 1009.0
20260507064115 44 320 0.0 0.0 0.00 0.00 0.00 69 1009.1
20260507063612 44 334 0.0 0.0 0.00 0.00 0.00 67 1009.2
20260507063109 45 8 0.0 0.0 0.00 0.00 0.00 67 1009.0
20260507062606 44 333 0.0 0.0 0.00 0.00 0.00 65 1008.4
20260507062103 44 302 0.0 0.0 0.00 0.00 0.00 65 1008.3
20260507061601 45 300 1.0 1.0 0.00 0.00 0.00 66 1008.3
20260507061059 45 310 0.0 1.0 0.00 0.00 0.00 65 1008.4
20260507060557 45 311 0.0 0.0 0.00 0.00 0.00 65 1008.4
20260507060053 45 311 0.0 1.0 0.00 0.00 0.00 66 1008.4
20260507055548 45 312 0.0 0.0 0.00 0.00 0.00 65 1008.4
20260507055044 46 312 0.0 0.0 0.00 0.00 0.00 64 1008.2
20260507054540 46 315 0.0 0.0 0.00 0.00 0.00 64 1008.5
20260507054038 46 327 0.0 0.0 0.00 0.00 0.00 64 1008.4
20260507053536 46 337 0.0 0.0 0.00 0.00 0.00 61 1008.3
20260507053034 46 309 0.0 0.0 0.00 0.00 0.00 62 1008.1
20260507052531 46 308 0.0 1.0 0.00 0.00 0.00 61 1007.8
20260507052028 47 315 0.0 0.0 0.00 0.00 0.00 60 1007.8
20260507051526 48 315 0.0 0.0 0.00 0.00 0.00 58 1007.7
20260507051022 48 315 0.0 0.0 0.00 0.00 0.00 57 1007.8
20260507050519 48 315 0.0 0.0 0.00 0.00 0.00 57 1008.0
20260507050015 49 326 0.0 0.0 0.00 0.00 0.00 56 1007.8
20260507045512 50 326 0.0 0.0 0.00 0.00 0.00 55 1008.0
20260507045009 50 326 1.0 1.0 0.00 0.00 0.00 55 1007.8
20260507044506 50 344 0.0 1.0 0.00 0.00 0.00 52 1007.6
20260507044003 50 313 0.0 0.0 0.00 0.00 0.00 54 1007.6
20260507043459 50 351 0.0 0.0 0.00 0.00 0.00 53 1007.5
20260507042955 50 322 0.0 0.0 0.00 0.00 0.00 53 1007.7
20260507042452 50 329 1.0 2.0 0.00 0.00 0.00 57 1007.3
20260507041948 50 322 0.0 0.0 0.00 0.00 0.00 59 1007.6
20260507041444 50 341 0.0 0.0 0.00 0.00 0.00 60 1007.4
20260507040942 50 315 0.0 0.0 0.00 0.00 0.00 60 1007.3
20260507040437 50 310 1.0 1.0 0.00 0.00 0.00 60 1006.9
20260507035933 51 315 0.0 0.0 0.00 0.00 0.00 59 1006.8
20260507035430 52 352 0.0 0.0 0.00 0.00 0.00 59 1006.8
20260507034927 53 312 0.0 0.0 0.00 0.00 0.00 57 1006.9
20260507034424 54 334 0.0 0.0 0.00 0.00 0.00 55 1006.7
20260507033922 54 312 0.0 1.0 0.00 0.00 0.00 53 1006.7
20260507033420 54 315 1.0 2.0 0.00 0.00 0.00 49 1006.3
20260507032916 54 318 1.0 1.0 0.00 0.00 0.00 54 1006.2
20260507032413 54 322 0.0 0.0 0.00 0.00 0.00 55 1006.5
20260507031909 54 331 0.0 0.0 0.00 0.00 0.00 54 1006.2
20260507031406 55 315 0.0 0.0 0.00 0.00 0.00 54 1006.5
20260507030903 55 318 0.0 0.0 0.00 0.00 0.00 55 1006.3
20260507030400 55 307 1.0 2.0 0.00 0.00 0.00 53 1006.0
20260507025857 55 318 0.0 0.0 0.00 0.00 0.00 53 1006.2
20260507025354 55 309 0.0 0.0 0.00 0.00 0.00 50 1005.7
20260507024852 55 320 0.0 0.0 0.00 0.00 0.00 51 1005.9
20260507024349 56 311 0.0 0.0 0.00 0.00 0.00 51 1005.8
20260507023844 56 314 0.0 0.0 0.00 0.00 0.00 53 1006.0
20260507023342 57 311 0.0 0.0 0.00 0.00 0.00 50 1005.7
20260507022839 58 311 0.0 0.0 0.00 0.00 0.00 48 1005.9
20260507022335 58 311 0.0 0.0 0.00 0.00 0.00 46 1005.4
20260507021831 59 312 0.0 0.0 0.00 0.00 0.00 47 1005.5
20260507021327 59 340 0.0 0.0 0.00 0.00 0.00 45 1005.3
20260507020825 60 322 0.0 1.0 0.00 0.00 0.00 45 1005.4
20260507020321 60 319 0.0 0.0 0.00 0.00 0.00 44 1005.3
20260507015819 62 323 0.0 0.0 0.00 0.00 0.00 41 1005.2
20260507015316 64 45 0.0 1.0 0.00 0.00 0.00 39 1005.0
20260507014813 63 330 0.0 0.0 0.00 0.00 0.00 40 1005.2
20260507014309 64 25 1.0 1.0 0.00 0.00 0.00 36 1004.9
20260507013806 64 315 0.0 0.0 0.00 0.00 0.00 36 1005.0
20260507013303 63 342 0.0 0.0 0.00 0.00 0.00 38 1004.9
20260507012800 63 310 0.0 0.0 0.00 0.00 0.00 38 1005.2
20260507012256 64 285 2.0 2.0 0.00 0.00 0.00 36 1004.7
20260507011754 64 290 4.0 6.0 0.00 0.00 0.00 36 1005.0
20260507011250 64 318 0.0 0.0 0.00 0.00 0.00 36 1005.0
20260507010749 64 262 4.0 4.0 0.00 0.00 0.00 34 1004.9
20260507010246 64 10 1.0 2.0 0.00 0.00 0.00 34 1004.7
20260507005743 64 279 2.0 3.0 0.00 0.00 0.00 35 1004.6
20260507005240 64 263 6.0 8.0 0.00 0.00 0.00 34 1005.0
20260507004736 64 262 6.0 8.0 0.00 0.00 0.00 34 1005.0
20260507004234 64 238 4.0 6.0 0.00 0.00 0.00 35 1004.7
20260507003730 64 314 2.0 2.0 0.00 0.00 0.00 34 1004.6
20260507003226 64 263 3.0 6.0 0.00 0.00 0.00 34 1004.9
20260507002722 64 262 4.0 6.0 0.00 0.00 0.00 34 1004.6
20260507002218 64 297 2.0 3.0 0.00 0.00 0.00 34 1004.7
20260507001715 64 132 4.0 6.0 0.00 0.00 0.00 35 1004.5
20260507001212 65 246 7.0 9.0 0.00 0.00 0.00 33 1004.6
20260507000708 65 269 6.0 7.0 0.00 0.00 0.00 33 1004.5
20260507000205 65 274 3.0 4.0 0.00 0.00 0.00 34 1004.4
20260506235701 65 251 4.0 6.0 0.00 0.00 0.00 33 1004.5
20260506235157 66 135 4.0 4.0 0.00 0.00 0.00 34 1004.4
20260506234654 66 257 7.0 10.0 0.00 0.00 0.00 33 1004.6
20260506234151 66 339 0.0 1.0 0.00 0.00 0.00 35 1004.3
20260506233648 66 312 3.0 4.0 0.00 0.00 0.00 33 1004.4
20260506233145 66 240 1.0 1.0 0.00 0.00 0.00 34 1004.5
20260506232641 66 276 4.0 6.0 0.00 0.00 0.00 33 1004.4
20260506232136 67 314 4.0 8.0 0.00 0.00 0.00 33 1004.6
20260506231634 67 286 4.0 4.0 0.00 0.00 0.00 33 1004.4
20260506231132 67 349 2.0 3.0 0.00 0.00 0.00 32 1004.3
20260506230629 67 276 5.0 8.0 0.00 0.00 0.00 32 1004.5
20260506230126 68 320 1.0 2.0 0.00 0.00 0.00 32 1004.4
20260506225622 68 329 0.0 1.0 0.00 0.00 0.00 33 1004.4
20260506225119 68 348 1.0 1.0 0.00 0.00 0.00 30 1004.6
20260506224615 69 318 4.0 6.0 0.00 0.00 0.00 29 1004.4
20260506224112 70 302 5.0 7.0 0.00 0.00 0.00 30 1004.9
20260506223608 70 218 3.0 4.0 0.00 0.00 0.00 29 1004.4
20260506223105 71 213 5.0 7.0 0.00 0.00 0.00 29 1004.4
20260506222602 72 291 8.0 10.0 0.00 0.00 0.00 28 1004.1
20260506222058 71 250 4.0 6.0 0.00 0.00 0.00 29 1004.3
20260506221556 71 246 7.0 10.0 0.00 0.00 0.00 28 1004.6
20260506221054 71 277 4.0 9.0 0.00 0.00 0.00 29 1004.5
20260506220549 69 253 4.0 4.0 0.00 0.00 0.00 30 1004.6
20260506220045 69 232 3.0 3.0 0.00 0.00 0.00 29 1004.6
20260506215542 71 252 6.0 10.0 0.00 0.00 0.00 29 1004.5
20260506215037 70 305 3.0 6.0 0.00 0.00 0.00 29 1004.7
20260506214535 70 225 3.0 4.0 0.00 0.00 0.00 30 1004.7
20260506214032 70 293 4.0 7.0 0.00 0.00 0.00 28 1004.7
20260506213530 70 219 9.0 14.0 0.00 0.00 0.00 28 1005.1
20260506213027 70 251 3.0 4.0 0.00 0.00 0.00 29 1004.5
20260506212523 72 17 1.0 2.0 0.00 0.00 0.00 28 1004.9
20260506212019 72 138 3.0 4.0 0.00 0.00 0.00 28 1004.9
20260506211514 69 268 3.0 4.0 0.00 0.00 0.00 31 1004.9
20260506211012 70 297 4.0 7.0 0.00 0.00 0.00 29 1004.7
20260506210508 71 192 3.0 3.0 0.00 0.00 0.00 29 1005.0
20260506210005 71 114 5.0 6.0 0.00 0.00 0.00 31 1005.0
20260506205501 70 284 4.0 4.0 0.00 0.00 0.00 30 1005.2
20260506204952 69 349 1.0 1.0 0.00 0.00 0.00 29 1005.2
20260506204450 69 260 8.0 10.0 0.00 0.00 0.00 29 1005.3
20260506203947 70 337 4.0 8.0 0.00 0.00 0.00 29 1005.4
20260506203444 69 325 2.0 3.0 0.00 0.00 0.00 31 1005.3
20260506202941 68 252 3.0 8.0 0.00 0.00 0.00 30 1005.5
20260506202438 69 252 5.0 8.0 0.00 0.00 0.00 30 1005.4
20260506201934 69 325 1.0 2.0 0.00 0.00 0.00 30 1005.5
20260506201432 70 184 2.0 2.0 0.00 0.00 0.00 30 1005.7
20260506200928 68 262 4.0 6.0 0.00 0.00 0.00 29 1005.8
20260506200425 69 271 5.0 9.0 0.00 0.00 0.00 29 1005.5
20260506195921 69 335 6.0 8.0 0.00 0.00 0.00 30 1005.9
20260506195418 68 258 8.0 10.0 0.00 0.00 0.00 29 1005.5
20260506194915 69 304 1.0 2.0 0.00 0.00 0.00 31 1005.9
20260506194412 69 225 4.0 8.0 0.00 0.00 0.00 29 1005.9
20260506193909 68 320 1.0 1.0 0.00 0.00 0.00 31 1005.9
20260506193406 68 314 3.0 4.0 0.00 0.00 0.00 30 1006.0
20260506192902 69 238 3.0 4.0 0.00 0.00 0.00 28 1005.7
20260506192359 69 247 4.0 6.0 0.00 0.00 0.00 29 1005.7
20260506191856 70 316 2.0 2.0 0.00 0.00 0.00 29 1006.0
20260506191352 67 259 3.0 6.0 0.00 0.00 0.00 30 1005.9
20260506190849 67 277 4.0 6.0 0.00 0.00 0.00 30 1006.0
20260506190345 68 270 2.0 4.0 0.00 0.00 0.00 29 1006.2
20260506185843 68 235 2.0 4.0 0.00 0.00 0.00 29 1006.1
20260506185340 68 340 1.0 1.0 0.00 0.00 0.00 30 1006.1
20260506184836 68 237 6.0 8.0 0.00 0.00 0.00 32 1006.1
20260506184334 68 25 3.0 3.0 0.00 0.00 0.00 30 1006.5
20260506183831 68 269 3.0 4.0 0.00 0.00 0.00 29 1006.3
20260506183326 68 259 2.0 2.0 0.00 0.00 0.00 30 1006.3
20260506182824 68 154 3.0 3.0 0.00 0.00 0.00 29 1006.1
20260506182321 67 225 6.0 7.0 0.00 0.00 0.00 31 1006.7
20260506181819 67 309 4.0 7.0 0.00 0.00 0.00 30 1006.6
20260506181316 67 227 2.0 4.0 0.00 0.00 0.00 29 1006.7
20260506180813 68 264 2.0 3.0 0.00 0.00 0.00 30 1006.6
20260506180309 67 326 2.0 2.0 0.00 0.00 0.00 31 1006.6
20260506175806 66 300 4.0 4.0 0.00 0.00 0.00 29 1006.7
20260506175306 66 249 1.0 1.0 0.00 0.00 0.00 31 1006.7
20260506174800 66 296 2.0 3.0 0.00 0.00 0.00 30 1006.8
20260506174257 67 296 1.0 1.0 0.00 0.00 0.00 30 1006.6
20260506173754 67 15 4.0 7.0 0.00 0.00 0.00 30 1006.7
20260506173251 66 264 3.0 4.0 0.00 0.00 0.00 31 1006.8
20260506172748 65 241 5.0 6.0 0.00 0.00 0.00 31 1006.9
20260506172245 66 235 2.0 3.0 0.00 0.00 0.00 31 1006.9
20260506171742 66 247 4.0 6.0 0.00 0.00 0.00 31 1007.0
20260506171239 66 348 0.0 1.0 0.00 0.00 0.00 31 1006.9
20260506170737 66 270 1.0 6.0 0.00 0.00 0.00 32 1007.0
20260506170233 65 306 3.0 3.0 0.00 0.00 0.00 31 1007.2
20260506165732 64 316 2.0 3.0 0.00 0.00 0.00 31 1007.2
20260506165228 64 256 4.0 6.0 0.00 0.00 0.00 33 1007.4
20260506164726 64 244 6.0 9.0 0.00 0.00 0.00 31 1007.3
20260506164222 65 347 1.0 1.0 0.00 0.00 0.00 34 1007.2
20260506163719 64 128 2.0 3.0 0.00 0.00 0.00 32 1007.4
20260506163214 64 340 2.0 2.0 0.00 0.00 0.00 31 1007.5
20260506162710 63 284 3.0 4.0 0.00 0.00 0.00 33 1007.2
20260506162208 63 336 1.0 2.0 0.00 0.00 0.00 33 1007.5
20260506161705 63 318 1.0 1.0 0.00 0.00 0.00 36 1007.4
20260506161202 62 292 2.0 2.0 0.00 0.00 0.00 34 1007.4
20260506160700 61 265 2.0 3.0 0.00 0.00 0.00 40 1007.5
20260506160156 59 125 2.0 2.0 0.00 0.00 0.00 39 1007.7
20260506155655 58 6 0.0 1.0 0.00 0.00 0.00 43 1007.7
20260506155151 55 346 0.0 0.0 0.00 0.00 0.00 44 1008.1
20260506153253 55 343 0.0 0.0 0.00 0.00 0.00 42 1008.1
20260506152750 54 348 0.0 0.0 0.00 0.00 0.00 45 1007.7
20260506152248 54 354 0.0 0.0 0.00 0.00 0.00 47 1007.8
20260506151747 53 21 1.0 1.0 0.00 0.00 0.00 47 1008.1
20260506151243 52 336 0.0 0.0 0.00 0.00 0.00 48 1007.8
20260506150739 51 335 0.0 0.0 0.00 0.00 0.00 51 1008.1
20260506150237 49 305 0.0 0.0 0.00 0.00 0.00 55 1008.3
20260506145734 48 305 0.0 0.0 0.00 0.00 0.00 56 1008.4
20260506145230 48 305 0.0 0.0 0.00 0.00 0.00 56 1008.4
20260506144727 45 305 0.0 0.0 0.00 0.00 0.00 62 1008.3
20260506144224 44 305 0.0 0.0 0.00 0.00 0.00 66 1008.3
20260506143722 41 305 0.0 0.0 0.00 0.00 0.00 69 1008.4
20260506143219 40 305 0.0 0.0 0.00 0.00 0.00 71 1008.5
20260506142718 39 305 0.0 0.0 0.00 0.00 0.00 71 1008.4
20260506142215 37 305 0.0 0.0 0.00 0.00 0.00 73 1008.4
20260506141713 35 305 0.0 0.0 0.00 0.00 0.00 75 1009.0
20260506141211 35 305 0.0 0.0 0.00 0.00 0.00 75 1008.9
20260506140709 33 305 0.0 0.0 0.00 0.00 0.00 77 1008.6
20260506140205 32 305 0.0 0.0 0.00 0.00 0.00 79 1008.9
20260506135702 31 306 0.0 0.0 0.00 0.00 0.00 82 1008.9
20260506135158 30 305 0.0 0.0 0.00 0.00 0.00 82 1009.0
20260506134655 30 306 0.0 0.0 0.00 0.00 0.00 83 1008.8
20260506134151 29 305 0.0 0.0 0.00 0.00 0.00 84 1008.9
20260506133648 28 306 0.0 0.0 0.00 0.00 0.00 85 1009.1
20260506133145 27 306 0.0 0.0 0.00 0.00 0.00 85 1009.0
20260506132643 27 306 0.0 0.0 0.00 0.00 0.00 85 1009.2
20260506132139 26 306 0.0 0.0 0.00 0.00 0.00 86 1009.0
20260506131637 25 306 0.0 0.0 0.00 0.00 0.00 87 1009.2
20260506131133 25 306 0.0 0.0 0.00 0.00 0.00 86 1009.2
20260506130630 25 306 0.0 0.0 0.00 0.00 0.00 87 1009.0
20260506130127 24 306 0.0 0.0 0.00 0.00 0.00 87 1009.1
20260506125626 24 305 0.0 0.0 0.00 0.00 0.00 87 1009.0
20260506125123 24 305 0.0 0.0 0.00 0.00 0.00 87 1009.1
20260506124621 23 305 0.0 0.0 0.00 0.00 0.00 87 1009.0
20260506124118 23 306 0.0 0.0 0.00 0.00 0.00 88 1009.2
20260506123616 23 306 0.0 0.0 0.00 0.00 0.00 88 1009.2
20260506123114 23 306 0.0 0.0 0.00 0.00 0.00 87 1009.2
20260506122610 23 306 0.0 0.0 0.00 0.00 0.00 87 1009.1
20260506122108 23 305 0.0 0.0 0.00 0.00 0.00 87 1009.1
20260506121606 23 308 0.0 0.0 0.00 0.00 0.00 87 1009.3
20260506121102 23 309 0.0 0.0 0.00 0.00 0.00 87 1009.2
20260506120600 23 309 0.0 0.0 0.00 0.00 0.00 87 1009.3
20260506120057 23 309 0.0 0.0 0.00 0.00 0.00 87 1009.3
20260506115555 23 309 0.0 0.0 0.00 0.00 0.00 87 1009.1
20260506115053 23 308 0.0 0.0 0.00 0.00 0.00 86 1009.3
20260506114550 23 309 0.0 0.0 0.00 0.00 0.00 87 1009.3
20260506114048 23 314 0.0 0.0 0.00 0.00 0.00 86 1009.4
20260506113546 23 314 0.0 0.0 0.00 0.00 0.00 87 1009.8
20260506113043 23 314 0.0 0.0 0.00 0.00 0.00 86 1009.7
20260506112539 23 314 0.0 0.0 0.00 0.00 0.00 86 1009.6
20260506112037 23 314 0.0 0.0 0.00 0.00 0.00 86 1009.7
20260506111535 24 314 0.0 0.0 0.00 0.00 0.00 86 1009.9
20260506111032 24 314 0.0 0.0 0.00 0.00 0.00 86 1009.8
20260506110530 24 314 0.0 0.0 0.00 0.00 0.00 86 1009.7
20260506110027 24 314 0.0 0.0 0.00 0.00 0.00 85 1009.9
20260506105522 24 314 0.0 0.0 0.00 0.00 0.00 85 1009.9
20260506105020 24 314 0.0 0.0 0.00 0.00 0.00 85 1010.2
20260506104518 24 314 0.0 0.0 0.00 0.00 0.00 85 1010.0
20260506104016 24 314 0.0 0.0 0.00 0.00 0.00 85 1010.2
20260506103513 24 314 0.0 0.0 0.00 0.00 0.00 84 1010.5
20260506103009 24 314 0.0 0.0 0.00 0.00 0.00 84 1010.0
20260506102508 24 314 0.0 0.0 0.00 0.00 0.00 84 1010.2
20260506102005 24 315 0.0 0.0 0.00 0.00 0.00 84 1010.2
20260506101501 24 315 0.0 0.0 0.00 0.00 0.00 84 1010.2
20260506100958 24 315 0.0 0.0 0.00 0.00 0.00 84 1010.5
20260506100457 25 314 0.0 0.0 0.00 0.00 0.00 84 1010.5
20260506095954 25 314 0.0 0.0 0.00 0.00 0.00 83 1010.2
20260506095453 25 315 0.0 0.0 0.00 0.00 0.00 84 1010.6
20260506094948 25 316 0.0 0.0 0.00 0.00 0.00 83 1010.7
20260506094447 25 315 0.0 0.0 0.00 0.00 0.00 83 1010.8
20260506093944 25 314 0.0 0.0 0.00 0.00 0.00 83 1010.9
20260506093442 25 338 0.0 0.0 0.00 0.00 0.00 83 1011.2
20260506092940 25 339 0.0 0.0 0.00 0.00 0.00 83 1010.9
20260506092438 26 339 0.0 0.0 0.00 0.00 0.00 83 1010.8
20260506091934 26 299 0.0 0.0 0.00 0.00 0.00 82 1010.8